Date String (YYYY-MM-DD hh:mm:ss) UTC,Instrument flags,Ambient pressure (hPa),Sample flow (lpm),Bypass flow (lpm),Sample temperature (°C),Ambient temperature (°C),ASC tube jacket temperature (°C),LED temperature (°C),Box temperature (°C),Sample RH (%),Span deviation,Mass concentration (μg/m³),Mass concentration (μg/m³),Mass concentration (μg/m³)
DateTimeUTC,F1_M11,P_M11,Q1_M11,Q2_M11,T1_M11,T2_M11,T3_M11,T4_M11,T5_M11,U1_M11,ZSPAN_M11,X0_M11,X2_M11,X1_M11
2021-11-30 16:00:00,,0833.1,5.00,0.00,25.2,24.5,00.0,34.3,26.9,14.4,0000.0,0022.94,0004.41,0002.39
2021-11-30 16:01:00,,0833.2,5.00,0.00,25.2,24.5,00.0,34.3,26.9,14.4,0000.0,0020.04,0004.29,0002.34
2021-11-30 16:02:00,,0833.1,5.00,0.00,25.2,24.6,00.0,34.3,26.9,14.4,0000.0,0019.10,0004.20,0002.30
2021-11-30 16:03:00,,0833.1,5.01,0.00,25.2,24.6,00.0,34.2,26.9,14.4,0000.0,0018.24,0004.14,0002.27
2021-11-30 16:04:00,,0833.1,5.00,0.00,25.2,24.6,00.0,34.2,26.9,14.4,0000.0,0017.92,0004.13,0002.26
2021-11-30 16:05:00,,0833.1,4.99,0.00,25.2,24.6,00.0,34.2,27.0,14.4,0000.0,0016.76,0004.07,0002.22
2021-11-30 16:06:00,,0833.0,5.01,0.00,25.2,24.5,00.0,34.2,27.0,14.4,0000.0,0016.62,0003.95,0002.17
2021-11-30 16:07:00,,0833.1,4.99,0.00,25.2,24.5,00.0,34.2,27.0,14.4,0000.0,0017.09,0003.83,0002.14
2021-11-30 16:08:00,,0833.1,5.01,0.00,25.2,24.6,00.0,34.2,27.0,14.5,0000.0,0016.87,0003.79,0002.14
2021-11-30 16:09:00,,0833.1,5.00,0.00,25.2,24.6,00.0,34.2,27.0,14.4,0000.0,0016.34,0003.77,0002.13
2021-11-30 16:10:00,,0833.1,4.99,0.00,25.2,24.6,00.0,34.3,27.1,14.4,0000.0,0016.76,0003.72,0002.09
2021-11-30 16:11:00,,0833.2,5.01,0.00,25.2,24.6,00.0,34.3,27.0,14.4,0000.0,0017.07,0003.65,0002.03
2021-11-30 16:12:00,,0833.1,4.99,0.00,25.3,24.7,00.0,34.2,27.0,14.4,0000.0,0017.95,0003.57,0001.99
2021-11-30 16:13:00,,0833.1,5.01,0.00,25.3,24.7,00.0,34.2,27.1,14.4,0000.0,0017.66,0003.48,0001.93
2021-11-30 16:14:00,,0833.1,5.01,0.00,25.3,24.7,00.0,34.3,27.1,14.4,0000.0,0017.94,0003.44,0001.89
2021-11-30 16:15:00,,0833.1,4.99,0.00,25.3,24.7,00.0,34.3,27.1,14.4,0000.0,0017.76,0003.43,0001.85
2021-11-30 16:16:00,,0833.1,5.01,0.00,25.3,24.7,00.0,34.3,27.1,14.4,0000.0,0017.29,0003.39,0001.81
2021-11-30 16:17:00,,0833.1,4.99,0.00,25.3,24.8,00.0,34.3,27.1,14.4,0000.0,0016.95,0003.35,0001.76
2021-11-30 16:18:00,,0833.1,5.01,0.00,25.3,24.8,00.0,34.3,27.2,14.4,0000.0,0015.33,0003.28,0001.70
2021-11-30 16:19:00,,0833.1,4.98,0.00,25.4,24.8,00.0,34.3,27.2,14.4,0000.0,0013.56,0003.20,0001.62
2021-11-30 16:20:00,,0833.1,5.01,0.00,25.4,24.8,00.0,34.3,27.2,14.5,0000.0,0013.37,0003.12,0001.57
2021-11-30 16:21:00,,0833.1,5.00,0.00,25.4,24.9,00.0,34.3,27.2,14.4,0000.0,0012.75,0003.09,0001.54
2021-11-30 16:22:00,,0833.0,4.99,0.00,25.4,24.9,00.0,34.3,27.3,14.4,0000.0,0012.44,0003.10,0001.54
2021-11-30 16:23:00,,0833.0,5.00,0.00,25.4,24.9,00.0,34.3,27.3,14.4,0000.0,0011.34,0003.02,0001.50
2021-11-30 16:24:00,,0833.0,5.01,0.00,25.4,24.9,00.0,34.4,27.3,14.3,0000.0,0010.68,0002.96,0001.48
2021-11-30 16:25:00,,0833.1,4.99,0.00,25.5,24.9,00.0,34.4,27.3,14.3,0000.0,0010.00,0002.88,0001.47
2021-11-30 16:26:00,,0833.0,5.01,0.00,25.5,24.9,00.0,34.4,27.3,14.4,0000.0,0009.60,0002.76,0001.46
2021-11-30 16:27:00,,0833.0,4.99,0.00,25.5,24.9,00.0,34.4,27.3,14.4,0000.0,0009.87,0002.73,0001.47
2021-11-30 16:28:00,,0833.0,5.00,0.00,25.5,24.9,00.0,34.4,27.3,14.4,0000.0,0009.01,0002.74,0001.48
2021-11-30 16:29:00,,0832.9,5.01,0.00,25.5,25.0,00.0,34.4,27.3,14.4,0000.0,0009.05,0002.75,0001.48
2021-11-30 16:30:00,,0833.0,5.00,0.00,25.5,24.9,00.0,34.4,27.4,14.4,0000.0,0009.26,0002.70,0001.48
2021-11-30 16:31:00,,0833.0,5.00,0.00,25.5,24.9,00.0,34.5,27.3,14.4,0000.0,0009.38,0002.69,0001.50
2021-11-30 16:32:00,,0833.1,5.01,0.00,25.5,24.9,00.0,34.5,27.4,14.4,0000.0,0009.50,0002.83,0001.53
2021-11-30 16:33:00,,0833.1,4.98,0.00,25.5,25.0,00.0,34.5,27.4,14.4,0000.0,0009.63,0002.86,0001.56
2021-11-30 16:34:00,,0833.1,5.00,0.00,25.6,25.0,00.0,34.5,27.3,14.4,0000.0,0009.37,0002.90,0001.59
2021-11-30 16:35:00,,0833.0,5.00,0.00,25.6,25.0,00.0,34.5,27.4,14.4,0000.0,0009.51,0002.99,0001.60
2021-11-30 16:36:00,,0833.0,4.99,0.00,25.6,25.0,00.0,34.5,27.4,14.4,0000.0,0009.65,0002.96,0001.58
2021-11-30 16:37:00,,0833.1,5.01,0.00,25.6,25.0,00.0,34.5,27.4,14.4,0000.0,0010.07,0002.98,0001.58
2021-11-30 16:38:00,,0833.0,5.00,0.00,25.6,25.0,00.0,34.5,27.5,14.3,0000.0,0009.96,0003.06,0001.57
2021-11-30 16:39:00,,0833.0,5.00,0.00,25.6,25.1,00.0,34.5,27.5,14.3,0000.0,0009.99,0003.10,0001.56
2021-11-30 16:40:00,,0833.0,5.01,0.00,25.6,25.1,00.0,34.6,27.5,14.3,0000.0,0009.50,0003.03,0001.55
2021-11-30 16:41:00,,0833.0,5.00,0.00,25.7,25.1,00.0,34.6,27.5,14.3,0000.0,0009.26,0002.99,0001.54
2021-11-30 16:42:00,,0833.0,5.02,0.00,25.7,25.1,00.0,34.6,27.5,14.2,0000.0,0009.13,0002.97,0001.52
2021-11-30 16:43:00,,0833.1,4.99,0.00,25.7,25.2,00.0,34.6,27.6,14.3,0000.0,0009.02,0002.89,0001.51
2021-11-30 16:44:00,,0833.0,5.02,0.00,25.7,25.2,00.0,34.6,27.6,14.3,0000.0,0008.92,0002.87,0001.49
2021-11-30 16:45:00,,0833.0,4.99,0.00,25.8,25.2,00.0,34.6,27.6,14.2,0000.0,0008.56,0002.79,0001.48
2021-11-30 16:46:00,,0833.1,5.01,0.00,25.8,25.2,00.0,34.6,27.6,14.2,0000.0,0008.42,0002.73,0001.48
2021-11-30 16:47:00,,0833.0,4.99,0.00,25.8,25.3,00.0,34.7,27.7,14.1,0000.0,0008.48,0002.76,0001.49
2021-11-30 16:48:00,,0833.0,5.01,0.00,25.8,25.3,00.0,34.7,27.7,14.1,0000.0,0008.20,0002.72,0001.49
2021-11-30 16:49:00,,0833.1,4.99,0.00,25.8,25.3,00.0,34.7,27.7,14.1,0000.0,0008.05,0002.66,0001.50
2021-11-30 16:50:00,,0833.0,5.01,0.00,25.9,25.3,00.0,34.7,27.7,14.2,0000.0,0007.99,0002.60,0001.50
2021-11-30 16:51:00,,0833.0,5.00,0.00,25.9,25.3,00.0,34.7,27.8,14.2,0000.0,0008.51,0002.58,0001.51
2021-11-30 16:52:00,,0833.1,4.99,0.00,25.9,25.3,00.0,34.8,27.8,14.2,0000.0,0008.82,0002.61,0001.51
2021-11-30 16:53:00,,0833.1,5.00,0.00,26.0,25.3,00.0,34.8,27.8,14.1,0000.0,0008.31,0002.54,0001.48
2021-11-30 16:54:00,,0833.1,4.99,0.00,26.0,25.4,00.0,34.8,27.8,14.1,0000.0,0008.12,0002.46,0001.44
2021-11-30 16:55:00,,0833.1,5.01,0.00,26.0,25.4,00.0,34.8,27.9,14.0,0000.0,0007.81,0002.37,0001.41
2021-11-30 16:56:00,,0833.1,4.99,0.00,26.0,25.4,00.0,34.8,27.9,14.0,0000.0,0007.71,0002.32,0001.39
2021-11-30 16:57:00,,0833.2,5.01,0.00,26.0,25.4,00.0,34.9,27.9,14.0,0000.0,0007.98,0002.25,0001.37
2021-11-30 16:58:00,,0833.1,4.99,0.00,26.1,25.4,00.0,34.9,27.9,14.1,0000.0,0007.94,0002.24,0001.34
2021-11-30 16:59:00,,0833.1,5.01,0.00,26.1,25.5,00.0,34.9,27.9,14.0,0000.0,0007.89,0002.30,0001.34
